Location: Gro�bocka
(50.8204°N, 11.9702°E)
Time: 01:39:12
(UTC+00:00)

Lacrosse 5 - Pass Details

Date: 29 October 2020
Orbit: 716 x 723 km, 57.0° (Epoch: 06 November)

Event Time Altitude Azimuth Distance (km) Brightness Sun altitude
Rises 19:55:35 0° 301° (WNW) 3,127 6.1 -38.2°
Reaches altitude 10° 19:57:59 10° 298° (WNW) 2,204 5.1 -38.5°
Enters shadow 19:59:23 19° 294° (WNW) 1,685 4.3 -38.7°
